Regional Weather Roundup
Issued by NWS

Home | Current Version | Previous Version | Graphics & Text | Print | Product List | Glossary On
Versions: 1 2 3 4 5 6 7 8 9 10 11 12 13 14 15 16 17 18 19 20 21 22 23 24 25 26 27 28 29 30 31 32 33 34 35 36 37 38 39 40 41 42 43 44 45 46 47 48 49 50
000
ASUS43 KMKX 291421
RWRWI

WISCONSIN REGIONAL WEATHER ROUNDUP
NATIONAL WEATHER SERVICE MILWAUKEE/SULLIVAN WI
900 AM CDT TUE JUL 29 2014

NOTE: "FAIR" INDICATES FEW OR NO CLOUDS BELOW 12,000 FEET WITH NO
SIGNIFICANT WEATHER AND/OR OBSTRUCTIONS TO VISIBILITY.

WIZ001-002-006>008-014>016-023>028-291500-
NORTHWEST WISCONSIN

CITY           SKY/WX    TMP DP  RH WIND       PRES   REMARKS
SUPERIOR ARPT  MOSUNNY   63  58  82 SW5       30.07F
ASHLAND        PTSUNNY   62  57  83 S3        30.07S
HAYWARD        PTSUNNY   60  56  86 CALM      30.10S
SIREN          MOSUNNY   62  57  84 NW5       30.11S
RICE LAKE      NOT AVBL
LADYSMITH      CLOUDY    63  57  80 W6        30.10S
EAU CLAIRE     SUNNY     66  58  75 W6        30.09F
MENOMONIE      SUNNY     67  58  72 W6        30.11S
NEW RICHMOND   SUNNY     65  58  76 NW6       30.13S
OSCEOLA        SUNNY     65  61  87 NW3       30.16S
$$

WIZ003>005-009-010-017-018-291500-
NORTH CENTRAL WISCONSIN

CITY           SKY/WX    TMP DP  RH WIND       PRES   REMARKS
WOODRUFF       MOSUNNY   62  58  87 N9        30.07R
RHINELANDER    CLOUDY    59  55  87 VRB7      30.07S
EAGLE RIVER    MOSUNNY   62  55  77 NW10      30.06R
LAND O LAKES   PTSUNNY   62  55  78 NW7       30.06S
PHILLIPS       SUNNY     61  56  84 CALM      30.08S
TOMAHAWK       CLOUDY    59  56  88 NW6       30.08R
MEDFORD        MOSUNNY   61  56  84 NW7       30.08S
MERRILL        CLOUDY    60  56  86 NW3       30.07S
$$

WIZ029-030-035-036-043>047-291500-
CENTRAL WISCONSIN

CITY           SKY/WX    TMP DP  RH WIND       PRES   REMARKS
WAUSAU         CLOUDY    60  54  80 NW8       30.05S
MOSINEE        PTSUNNY   63  57  82 N5        30.07S
MARSHFIELD     MOSUNNY   66  55  67 NW12      30.08R
STEVENS POINT  CLOUDY    62  54  75 W3        30.07S
WAUPACA        CLOUDY    67  55  65 NW3       30.05S
WAUTOMA        CLOUDY    65  55  69 NW8       30.06S
WISC RAPIDS    MOSUNNY   64  56  75 NW6       30.09R
CAMP DOUGLAS   MOSUNNY   64  61  88 W9        30.09R
$$

WIZ011>013-019>022-031-037>040-048>050-291500-
NORTHEAST WISCONSIN

CITY           SKY/WX    TMP DP  RH WIND       PRES   REMARKS
ANTIGO         CLOUDY    60  55  83 NW9       30.05F
STURGEON BAY   MOSUNNY   63  54  72 NW6       30.01S
GREEN BAY      SUNNY     66  56  70 VRB6      30.03R
MANITOWOC      CLOUDY    64  56  75 NW5       30.02S
APPLETON       NOT AVBL
CLINTONVILLE   CLOUDY    63  52  67 NW6       30.03F
OSHKOSH        MOSUNNY   66  55  67 VRB7      30.04S
$$

WIZ032>034-041-042-053>061-291500-
SOUTHWEST WISCONSIN

CITY           SKY/WX    TMP DP  RH WIND       PRES   REMARKS
LA CROSSE      SUNNY     67  58  72 NW7       30.10S
SPARTA         SUNNY     63  55  74 CALM      30.11R
VIROQUA        FAIR      64  60  87 NW5       30.11S
BOSCOBEL       SUNNY     66  57  72 CALM      30.10S
PRAIRIE DU CHI SUNNY     65  54  68 NW5       30.10F
PLATTEVILLE    FAIR      64  58  79 NW6       30.11S
$$

WIZ056-057-062-063-064-067-068-291500-
SOUTH CENTRAL WISCONSIN

CITY           SKY/WX    TMP DP  RH WIND       PRES   REMARKS
BARABOO/DELLS  MOSUNNY   65  54  68 NW6       30.08S
LONE ROCK      SUNNY     67  58  72 W5        30.09S
WATERTOWN      SUNNY     64  56  73 NW9       30.06R
MADISON        MOSUNNY   68  55  63 NW6       30.07S
MIDDLETON      FAIR      67  55  65 NW6       30.08S
MONROE         SUNNY     64  55  72 NW8       30.09R
JANESVILLE     SUNNY     66  54  63 NW10      30.07S
$$

WIZ051-052-058>065-066-070>072-291500-
SOUTHEAST WISCONSIN

CITY           SKY/WX    TMP DP  RH WIND       PRES   REMARKS
MILWAUKEE      MOSUNNY   67  54  63 W9        30.03S
WAUKESHA       MOSUNNY   63  54  72 W7        30.06R
MILWAUKEE/TIMM SUNNY     64  54  68 NW7       30.04S
RACINE         SUNNY     66  56  70 NW10      30.05R
BURLINGTON     SUNNY     64  56  74 NW9       30.05S
KENOSHA        SUNNY     66  56  70 NW12      30.04S
FOND DU LAC    MOSUNNY   66  55  67 N5        30.05S
SHEBOYGAN      MOSUNNY   64  56  75 NW7       30.03R
WEST BEND      MOSUNNY   63  54  72 NW8       30.04R
JUNEAU         MOSUNNY   64  53  68 NW6       30.07S
$$

LSZ147-162-291500-
LAKE SUPERIOR

STATION/POSITION TIME  TEMP    WIND        PRES    WAVE
                       AIR SEA DIR/SP/G            HT/PER
                 (UTC) (F)     (DEG/KT/KT) (MB)    (FT/S)
W MID LAKE BUOY  1350   49 44  250/  8/  8 1017.2R   1
PORT WING        1300   61     210/  4/  6 1017.9
SAXON HARBOR     1300          190/  5/  7 1017.9S
$$

LMZ867-665-643>646-291500-
LAKE MICHIGAN

STATION/POSITION TIME  TEMP    WIND        PRES    WAVE
                       AIR SEA DIR/SP/G            HT/PER
                 (UTC) (F)     (DEG/KT/KT) (MB)    (FT/S)
N MID LAKE BUOY  1350   55 51  290/  6/  6 1014.7R   1
NORTHPORT PIER   1300   61     310/ 10/ 13 1015.6R
SISTER BAY       1210   61     340/ 13/ 16   N/A
KEWAUNEE LAKESHO 1400   65     300/  8/ 10 1016.9R
SHEBOYGAN LAKESH 1400   65     320/  8/  9 1016.7S
PORT WASHINGTON  1340   66     300/  7/ 12 1017.3R
ATWATER BUOY     1400   64     290/  6     1017.8R
MILWAUKEE LAKESH 1400   65     300/  6/  8   N/A
S MID LAKE BUOY  1350   61 60  290/ 10/ 12 1016.6R   1
KENOSHA   LAKESH 1400   66     280/  9/ 12 1016.6F
$$

TC  - TEMPERATURE IN CELSIUS
VSB - VISIBILITY IN STATUTE MILES
WCI - WIND CHILL INDEX
HX  - HEAT INDEX



USA.gov is the U.S. government's official web portal to all federal, state and local government web resources and services.